#timestamp,LO_Frequency,Hit,StdDev 
1457802015.5,286047003.2,N
1457802035.4,286047003.6,N
1457802055.2,286047001.3,N
1457802075.0,286047004.9,N
1457802075.9,286047004.9,N
1457802095.7,286047005.1,N
1457802115.6,286047006.2,N
1457802135.4,286047002.4,N
1457802155.2,286046998.3,N
1457802175.1,286046996.5,N
1457802176.0,286046996.5,N
1457802195.8,286046999.9,N
1457802215.6,286047005.4,N
1457802235.5,286047002.0,N
1457802255.3,286047002.5,N
1457802275.1,286047004.2,N
1457802295.9,286047007.3,N
1457802315.7,286047005.6,N
1457802335.5,286047003.8,N
1457802355.4,286047003.3,N
1457802375.2,286047001.2,N
1457802395.0,286046996.5,N
1457802395.9,286046996.5,N
1457802415.8,286047000.6,N
1457802435.6,286046998.7,N
1457802455.4,286047002.1,N
1457802475.3,286046998.7,N
1457802495.1,286046996.8,N
1457802496.0,286046996.8,N
1457802515.8,286046999.1,N
1457802535.7,286046997.3,N
1457802555.5,286046997.5,N
1457802575.3,286046997.1,N
1457802595.1,286046994.9,N
1457802615.9,286046995.7,N
1457802635.7,286046997.2,N
1457802655.5,286047000.7,N
1457802675.4,286047000.2,N
1457802695.2,286046999.0,N
1457802715.0,286046998.5,N
1457802715.9,286046998.5,N
1457802735.8,286046998.1,N
1457802755.6,286046999.2,N
1457802775.4,286046999.8,N
1457802795.3,286047000.6,N
1457802815.1,286046999.9,N
1457802816.0,286046999.9,N
1457802835.8,286046997.6,N
1457802855.7,286046993.4,Y
1457802875.5,286047001.1,P
1457802895.3,286047000.9,N
1457802915.2,286046998.2,N
1457802935.9,286046998.8,N
1457802955.7,286047001.3,N
1457802975.6,286047004.2,Y
1457802995.4,286047004.3,P
1457803015.2,286047001.4,N
1457803035.1,286047001.5,N
1457803036.0,286047001.5,N
1457803055.8,286047000.2,N
1457803075.6,286047001.4,N
1457803095.5,286047005.7,Y
1457803115.3,286047000.4,P
1457803135.1,286046998.4,P
1457803155.9,286046996.7,N
1457803175.7,286046999.5,N
1457803195.5,286046997.9,N
1457803215.4,286046992.1,Y
1457803235.2,286046992.6,P
1457803255.0,286046991.2,N
1457803255.9,286046991.2,N
1457803275.8,286046991.1,N
1457803295.6,286046990.6,Y
1457803315.4,286046999.7,P
1457803335.3,286046998.3,N
1457803355.1,286046998.4,N
1457803356.0,286046998.4,N
1457803375.8,286047000.8,N
1457803395.6,286047000.9,N
1457803415.5,286046998.2,N
1457803435.3,286046999.9,N
1457803455.1,286046996.7,N
1457803475.9,286046997.0,N
1457803495.7,286047000.4,N
1457803515.5,286047000.7,N
1457803535.4,286047002.3,N
1457803555.2,286047002.9,N
1457803575.0,286047006.8,N
1457803575.9,286047006.8,N
1457803595.8,286047007.0,N
1457803615.6,286047003.0,N
1457803635.4,286047000.2,N
1457803655.3,286046999.4,N
1457803675.1,286046995.9,N
1457803695.8,286046993.6,N
1457803715.7,286046992.7,N
1457803735.5,286046990.7,N
1457803755.3,286046992.8,N
1457803775.2,286046991.2,N
1457803795.9,286046990.3,N
1457803815.7,286046991.0,N
1457803835.6,286046991.1,N
1457803855.4,286046991.0,N
1457803875.2,286046988.5,N
1457803895.0,286046991.5,N
1457803896.0,286046991.5,N
1457803915.8,286046991.5,N
1457803935.6,286046988.1,N
1457803955.4,286046987.7,N
1457803975.3,286046989.8,N
1457803995.1,286046988.1,N
1457804015.8,286046989.1,N
1457804035.7,286046990.4,N
1457804055.5,286046990.5,N
1457804075.3,286046996.8,N
1457804095.2,286046998.7,N
1457804115.9,286047000.2,N
1457804135.7,286047002.6,N
1457804155.6,286047001.6,N
1457804175.4,286047002.0,N
1457804195.2,286047001.7,N
1457804215.1,286047002.2,N
1457804216.0,286047002.2,N
1457804235.8,286047005.4,N
1457804255.6,286047006.6,N
1457804275.5,286047006.4,N
1457804295.3,286047002.6,N
1457804315.1,286047005.6,N
1457804335.8,286047003.0,N
1457804355.7,286047008.3,N
1457804375.5,286047008.2,N
1457804395.3,286047004.6,N
1457804415.2,286047009.2,N
1457804435.9,286047009.9,N
1457804455.7,286047008.0,N
1457804475.6,286047006.3,N
1457804495.4,286047009.8,N
1457804515.2,286047009.8,N
1457804535.1,286047009.3,N
1457804536.0,286047009.3,N
1457804555.8,286047013.3,N
1457804575.6,286047011.8,N
1457804595.5,286047005.0,N
1457804615.3,286047006.0,N
1457804635.1,286047003.8,N
1457804655.9,286047003.5,N
1457804675.7,286047005.0,N
1457804695.5,286047004.7,N
1457804715.3,286047003.1,N
1457804735.2,286047002.1,N
1457804755.0,286047004.7,N
1457804755.9,286047004.7,N
1457804775.7,286047004.9,N
1457804795.6,286047005.2,N
1457804815.4,286047006.6,N
1457804835.2,286047009.8,Y
1457804855.1,286047002.3,P
1457804856.0,286047002.3,N
1457804875.8,286046999.5,N
1457804895.6,286046995.3,N
1457804915.5,286046997.7,N
1457804935.3,286046994.8,N
1457804955.1,286046988.6,N
1457804975.9,286046989.7,N
1457804995.7,286046986.9,N
1457805015.5,286046986.9,N
1457805035.4,286046991.3,N
1457805055.2,286046989.0,N
1457805075.0,286046989.7,N
1457805075.9,286046989.7,N
1457805095.8,286046988.3,N
1457805115.6,286046985.5,N
1457805135.4,286046984.8,N
1457805155.2,286046987.5,N
1457805175.1,286046991.3,N
1457805176.0,286046991.3,N
1457805195.8,286046992.9,N
1457805215.6,286046989.4,N
1457805235.5,286046989.0,N
1457805255.3,286046986.8,N
1457805275.1,286046984.7,N
1457805295.9,286046981.2,Y
1457805315.7,286046988.4,P
1457805335.5,286046987.0,P
1457805355.4,286046986.7,P
1457805375.2,286046987.2,Y
1457805395.0,286046997.1,P
1457805395.9,286046997.1,N
1457805415.8,286046994.9,N
1457805435.6,286046996.1,N
1457805455.4,286047001.1,N
1457805475.3,286046999.9,N
1457805495.1,286046998.1,N
1457805496.0,286046998.1,N
1457805515.8,286046998.1,N
1457805535.7,286046995.6,N
1457805555.5,286046993.4,N
1457805575.3,286046998.8,N
1457805595.2,286047005.3,N
